Location: Lake of the Woods (North-East)
(49.6672°N, 94.8656°W)
Time: 18:08:48
(UTC-06:00)

Daily predictions for brighter satellites

Satellite Brightness Start Highest point End
(mag) Time Altitude Azimuth Time Altitude Azimuth Time Altitude Azimuth
Cosmos 2242 Rocket 4.1 16:55:56 10° SSE 17:00:11 40° E 17:04:25 10° NNE
Cosmos 1862 Rocket 4.3 16:58:11 10° SSE 17:02:08 33° E 17:06:08 10° NNE
COSMOS 2455 3.4 16:57:56 10° S 17:03:28 40° ESE 17:09:02 10° NE
SMAP 3.4 17:01:42 10° SE 17:06:06 44° ENE 17:10:32 10° N
Cosmos 468 Rocket 4.1 17:03:12 10° NNW 17:08:26 87° WSW 17:13:35 10° SSE
SL-16 R/B 4.3 17:04:06 10° N 17:09:21 29° WNW 17:14:34 10° WSW
Cosmos 1802 Rocket 4.0 17:04:37 10° S 17:10:47 90° WSW 17:16:58 10° N
CZ-4 R/B 1.9 17:07:41 10° SE 17:11:09 32° ENE 17:14:36 10° N
Cosmos 1933 3.4 17:07:37 10° S 17:11:35 59° E 17:15:34 10° NNE
BREEZE-M R/B 2.8 17:12:17 10° W 17:14:39 49° SSW 17:17:49 10° ESE
CZ-4C R/B 3.3 17:09:22 10° NW 17:15:30 38° NNE 17:22:27 10° E
Cosmos 1606 4.4 17:14:34 10° ESE 17:16:35 14° E 17:18:36 10° NE
COSMOS 2441 4.5 17:11:54 10° SSE 17:16:48 86° WSW 17:21:45 10° NNW
Cosmos 1484 Rocket 2.9 17:15:23 10° SSE 17:19:09 53° ENE 17:23:02 10° N
Cosmos 1816 Rocket 4.4 17:13:13 10° N 17:19:22 71° E 17:25:29 10° SSE
IRAS Rocket 4.3 17:17:25 10° SSE 17:22:59 85° WSW 17:28:32 10° NNW
Cosmos 1763 Rocket 3.4 17:21:31 10° NNW 17:26:47 82° ENE 17:31:56 10° SSE
Meteor 2-10 Rocket 3.8 17:23:45 10° SSW 17:29:01 76° WNW 17:34:34 10° N
Cosmos 1782 Rocket 4.4 17:25:16 10° N 17:29:03 28° ENE 17:32:50 10° SE
SJ-7 4.4 17:25:37 10° SSE 17:29:46 79° ENE 17:33:53 10° N
Cosmos 2082 Rocket 2.5 17:24:34 10° NNW 17:30:03 45° NE 17:35:28 10° SE
SL-23 DEB 4.0 17:27:19 10° W 17:30:48 69° N 17:35:37 12° E
Cosmos 1725 Rocket 4.0 17:24:54 10° S 17:31:11 81° E 17:37:27 10° NNE
CZ-2C R/B 3.6 17:27:48 10° S 17:32:40 49° W 17:37:40 10° NNW
CSL-04 Rocket 3.7 17:27:46 10° SSE 17:33:05 87° WSW 17:38:30 10° NNW
Meteor 1-20 Rocket 4.3 17:28:44 10° N 17:34:14 54° ENE 17:39:36 10° SSE
Meteor 1-25 Rocket 4.3 17:28:49 10° N 17:34:38 61° ENE 17:40:23 10° SSE
COSMO-SKYMED 1 3.8 17:32:10 10° NE 17:35:28 21° E 17:38:47 10° SE
Cosmos 1340 2.8 17:32:54 10° SSW 17:36:41 75° WNW 17:40:29 10° N
METEOR-M 4.4 17:33:52 10° SE 17:38:56 47° ENE 17:44:03 10° N
ATLAS 3B R/B 3.9 17:33:34 10° W 17:39:56 33° NNW 17:46:03 10° NE
YAOGAN 1 2.7 17:36:08 10° SE 17:40:19 50° ENE 17:44:31 10° N
Cosmos 1782 3.8 17:38:11 10° SE 17:41:32 26° E 17:44:18 13° NE
Cosmos 1814 Rocket 4.4 17:36:14 10° NNW 17:41:35 72° WSW 17:46:55 10° SSE
SL-27 R/B 2.3 17:40:39 10° NNW 17:43:58 61° ENE 17:47:17 10° SSE
Tsikada Rocket 4.3 17:39:36 10° NNW 17:45:44 70° W 17:51:52 10° S
Meteor 2-12 Rocket 4.4 17:39:54 10° S 17:46:00 89° E 17:52:06 10° N
COSMOS 2487 4.3 17:45:19 10° NNE 17:46:42 15° NE 17:46:42 15° NE
ERS-2 2.3 17:44:53 10° SE 17:48:25 46° ENE 17:51:59 10° N
Cosmos 44 Rocket 3.5 17:45:45 10° NNW 17:50:27 48° NE 17:55:06 11° ESE
Cosmos 540 Rocket 3.5 17:48:06 10° NNW 17:53:14 58° ENE 17:58:20 10° SE
Lacrosse 5 2.6 17:51:34 10° W 17:56:23 42° NNW 17:59:43 19° NE
Cosmos 2221 Rocket 4.3 17:52:59 10° SSE 17:56:49 30° E 17:59:20 18° NE
CZ-2C R/B 3.7 17:52:51 10° NNE 17:57:17 57° ESE 18:01:45 10° S
USA 161 3.8 17:57:41 10° NW 17:58:34 12° WNW 17:59:29 10° W
USA 234 4.3 17:55:35 18° E 17:58:59 27° SE 18:04:20 10° S
Ariane Rocket 3.7 17:54:43 10° S 17:59:44 59° WSW 18:04:47 10° NNW
Cosmos 292 Rocket 4.0 17:56:16 10° NNW 18:00:50 43° ENE 18:05:21 10° SE
Cosmos 1844 Rocket 3.3 17:55:53 10° SW 18:01:24 54° NW 18:06:57 10° NNE
Cosmos 1703 Rocket 3.7 17:57:21 10° S 18:01:41 51° E 18:06:00 10° NNE
Cosmos 841 Rocket 3.8 17:57:04 10° NNW 18:02:21 70° WSW 18:07:35 10° SSE
Cosmos 836 Rocket 4.4 17:58:34 10° NNW 18:03:48 68° ENE 18:09:03 10° SSE
Cosmos 1633 2.4 18:06:37 10° N 18:10:18 78° E 18:13:59 10° SSE
MONITOR-E 4.1 18:07:41 10° SSE 18:10:41 59° ENE 18:13:43 10° N
Okean 2 Rocket 3.3 18:06:51 10° N 18:11:16 48° ENE 18:15:39 10° SSE
Meteor 1-10 Rocket 4.5 18:06:50 10° SSE 18:12:15 47° E 18:17:47 10° NNE
Cosmos 1437 4.3 18:11:35 10° SW 18:14:33 36° WNW 18:17:32 10° N
Cosmos 1486 Rocket 3.9 18:11:35 10° SSW 18:16:48 79° ESE 18:21:15 15° NNE
Cosmos 44 3.1 18:14:11 10° NW 18:18:49 80° NE 18:22:55 15° SE
FENGYUN 3A 3.6 18:13:44 10° SSE 18:19:04 62° ENE 18:24:25 10° N
Cosmos 1908 Rocket 4.3 18:18:16 10° NNW 18:22:31 54° W 18:26:44 10° S
SKYMED 2 3.5 18:20:46 19° NNE 18:23:49 60° ESE 18:28:06 10° S
Cosmos 1464 Rocket 3.9 18:19:47 10° S 18:25:46 60° E 18:31:51 10° NNE
Cosmos 1833 Rocket 2.8 18:20:25 10° NNW 18:26:04 80° WSW 18:31:41 10° SSE
Intercosmos 25 4.2 18:22:08 10° S 18:29:45 82° E 18:34:22 10° NNE
Cosmos 2297 3.8 18:28:29 10° S 18:34:02 54° ESE 18:36:14 34° NE
Cosmos 1354 Rocket 4.0 18:28:57 10° S 18:34:08 60° ESE 18:36:22 33° NE
Cosmos 783 Rocket 4.4 18:29:07 10° NNW 18:34:26 65° ENE 18:38:24 18° SE
ALOS 2.1 18:30:21 10° SSE 18:35:01 84° ENE 18:39:44 10° NNW
SPOT 3 Rocket 3.6 18:31:23 10° SSE 18:36:37 84° WSW 18:41:52 10° NNW
Cosmos 546 4.4 18:33:19 10° W 18:37:10 80° N 18:37:30 71° ENE
Meteor 1-11 Rocket 3.7 18:31:55 10° N 18:37:48 66° ENE 18:43:31 10° SSE
Cosmos 2278 Rocket 2.4 18:32:58 10° SW 18:38:38 70° WNW 18:42:52 18° NNE
Meteor 1-28 Rocket 4.4 18:37:37 10° N 18:41:07 40° WNW 18:44:37 10° SW
CENTAUR R/B 3.3 18:37:39 10° WSW 18:43:51 49° NNW 18:48:35 21° NNE
CZ-4 R/B 3.7 18:43:06 10° SSW 18:46:16 24° W 18:49:27 10° NW
COSMOS 2455 3.6 18:43:31 10° WSW 18:49:21 49° NW 18:53:20 20° NNE
Meteor 2-20 Rocket 4.3 18:43:58 10° N 18:50:05 67° ENE 18:56:07 10° SSE
Cosmos 1538 Rocket 4.5 18:45:09 10° NNW 18:49:37 42° NE 18:49:37 42° NE
Cosmos 1606 3.4 18:48:13 10° SSW 18:51:55 52° WNW 18:53:50 25° N
Okean 1-7 3.3 18:49:58 10° SSW 18:54:21 68° WNW 18:57:11 21° N
EO 1 Del DPAF 3.5 18:54:39 48° NNW 18:55:31 65° WNW 18:59:18 10° SSW
NOAA 12 4.4 18:52:16 10° S 18:57:33 66° WSW 19:02:51 10° NNW
CZ-4C R/B 2.8 18:57:50 10° NW 19:04:49 86° SW 19:09:19 28° SE
Cosmos 405 4.4 19:03:44 10° NNW 19:06:08 35° NW 19:06:08 35° NW
COSMO-SKYMED 1 3.5 19:09:24 22° N 19:11:52 47° WNW 19:16:01 10° SW
Cosmos 2082 Rocket 3.6 19:08:53 10° NW 19:14:04 37° WSW 19:19:12 10° S
ATLAS 3B R/B 4.0 19:27:06 10° NW 19:32:42 25° N 19:33:23 25° NNE
Nadezhda 4 Rocket 4.3 19:27:50 10° NNW 19:33:53 61° W 19:39:52 10° S
Lacrosse 5 3.2 19:35:32 10° WNW 19:38:55 32° NNW 19:38:55 32° NNW
USA 234 3.1 19:42:57 77° S 19:42:57 77° S 19:49:14 10° SW
Meteor 1-27 Rocket 4.3 19:40:43 10° SSW 19:46:31 57° WNW 19:49:09 32° N
Cosmos 1092 Rocket 4.2 19:44:55 10° NNW 19:51:00 64° W 19:52:09 54° SW
Cosmos 2278 Rocket 4.4 20:19:52 10° W 20:23:48 19° NW 20:24:44 18° NNW
CENTAUR R/B 4.2 20:30:27 10° WNW 20:35:46 28° NNW 20:35:46 28° NNW
